CZ-6A DEB, 54524

Orbit data source: Space-Track

CZ-6A DEB, 54524 is space debris in SSO originally from a launch on Fri, 11 Nov 2022 UTC launched from the Taiyaun Space Center, China (TSC). Debris objects in space refer to the collection of defunct objects orbiting the Earth. Examples of debris include non-operational satellites, rocket bodies, and fragments generated from explosions, collisions, or faulty payload assembly.

Loading next visibility...
Identifier
54524, 2022-151KC
Orbit
SSO
Country
Flag of CNCN / PRC
Related business
Manufacturer
SAST
Mission
Spacecraft
Bus & Motor
Unknown
Mass
Unknown
Launch date (UTC)
2022-11-11 (4 years ago)
Launch vehicle
Unknown
Launch site
Taiyaun Space Center, China (TSC)
Object type
Payload
Rocket body
Debris
Shape & HBR
Unknown shape, 0.1 m
Radar Cross Section
Small (<0.1 m²)

Expand to show TLE details & history
Last TLE update: 1 day ago

TLE from 1 day ago
0 CZ-6A DEB
1 54524U 22151KC  26235.03092094  .00004776  00000-0  93037-3 0  9995
2 54524  98.4603 270.1654 0088311  68.2484 292.8086 14.61044020199646
Epoch: 2026-08-23T00:44Z
TLE epoch observation values (Epoch: 2026-08-23T00:44:31.569Z)
Latitude
-0.00005°
Longitude
-72.29895°
Altitude
669.053 km
Speed
7.535 km/s
True Right ascension
18h 00m 39s
True Declination
0° 00' 00"
Sunlit
Object was in full shadow at epoch
Visualization orbit readout
Latitude
Unknown
Longitude
Unknown
Altitude
Unknown
Speed
Unknown
Apparent Right ascension
Unknown
Apparent Declination
Unknown
Sunlit
N/A
Visualization observer readout
Local Sidereal Time
15:52:54
Azimuth
Unknown
Elevation
Unknown
Doppler factor
Unknown
Orbital elements
Apogee altitude
749.289 km
Perigee altitude
624.505 km
Semi-major axis
7,065.034 km
Eccentricity
0.00883
Inclination
98.4603°
RAAN
270.1654°
Arg. of periapsis
68.2484°
True anomaly
291.87179°
Mean anomaly
292.8086°
Eccentric anomaly
292.34059°
Mean motion
3.65487 °/min
Orbital period
98.5 mins
BSTAR
0.00093037
Loading maneuver chart data...
Computing Atmospheric mass density...

Documentation

Showing up to 5 results
|